Location: Brompton
(51.4000°N, 0.5333°E)
Time: 16:40:03
(UTC+00:00)

Cosmos 1898 Rocket - Visible Passes

Search period start: 25 September 2021 00:00
Search period end: 05 October 2021 00:00
Orbit: 753 x 784 km, 74.0° (Epoch: 24 September)

Date Brightness Start Highest point End Pass type
(mag) Time Alt. Az. Time Alt. Az. Time Alt. Az.
25 Sep 5.7 04:56:51 10° N 05:01:26 29° NE 05:06:01 10° ESE visible
25 Sep 5.3 19:47:31 16° ENE 19:47:31 16° ENE 19:48:53 10° NE visible
25 Sep 4.4 21:27:44 44° N 21:27:44 44° N 21:31:34 10° NNE visible
25 Sep 6.1 23:07:56 13° WNW 23:09:39 15° NW 23:12:35 10° N visible
26 Sep 6.1 04:20:10 10° N 04:24:09 21° NE 04:28:06 10° E visible
26 Sep 5.4 19:10:16 13° ENE 19:10:16 13° ENE 19:11:08 10° ENE visible
26 Sep 3.8 20:50:27 58° NNE 20:50:27 58° NNE 20:54:40 10° NNE visible
26 Sep 5.8 22:30:38 18° WNW 22:32:15 20° NW 22:36:06 10° N visible
27 Sep 6.3 03:43:40 10° N 03:46:45 15° NE 03:49:50 10° ENE visible
27 Sep 3.4 20:12:22 60° ESE 20:12:27 60° ESE 20:17:39 10° NNE visible
27 Sep 5.3 21:52:26 19° W 21:54:57 28° NW 21:59:27 10° N visible
28 Sep 6.5 03:07:30 10° NNE 03:09:16 11° NNE 03:11:01 10° NE visible
28 Sep 5.0 04:47:53 10° NNW 04:52:55 40° NE 04:57:56 10° SE visible
28 Sep 3.9 19:30:53 10° S 19:35:40 38° ESE 19:40:31 10° NE visible
28 Sep 4.7 21:12:51 10° SW 21:17:44 39° NW 21:22:42 10° NNE visible
28 Sep 6.5 22:59:51 10° NW 23:01:26 11° NNW 23:03:01 10° NNW visible
29 Sep 5.6 04:11:08 10° N 04:15:44 28° NE 04:20:18 10° ESE visible
29 Sep 4.4 18:54:48 10° SSE 18:58:57 25° E 19:03:10 10° NE visible
29 Sep 4.0 20:35:30 10° SW 20:40:39 59° WNW 20:45:53 10° NNE visible
29 Sep 6.3 22:20:57 10° WNW 22:23:55 15° NW 22:26:56 10° N visible
30 Sep 6.1 03:34:28 10° N 03:38:26 21° NE 03:42:23 10° E visible
30 Sep 3.6 05:15:56 10° NNW 05:21:18 89° ENE 05:26:38 10° SSE visible
30 Sep 4.9 18:19:19 10° SE 18:22:21 16° E 18:25:24 10° ENE visible
30 Sep 3.4 19:58:26 10° SSW 20:03:39 89° WNW 20:08:58 10° NNE visible
30 Sep 5.9 21:42:41 10° W 21:46:31 20° NW 21:50:25 10° N visible
01 Oct 6.4 02:57:57 10° N 03:01:02 15° NE 03:04:06 10° ENE visible
01 Oct 4.2 04:39:01 10° NNW 04:44:18 59° ENE 04:49:34 10° SE visible
01 Oct 3.5 19:21:38 10° S 19:26:45 60° ESE 19:31:57 10° NNE visible
01 Oct 5.4 21:04:44 10° WSW 21:09:14 28° NW 21:13:46 10° N visible
02 Oct 6.6 02:21:49 10° NNE 02:23:32 11° NNE 02:25:16 10° NE visible
02 Oct 4.9 04:02:11 10° NNW 04:07:12 40° NE 04:12:13 10° SE visible
02 Oct 3.9 18:45:11 10° S 18:49:57 38° ESE 18:54:48 10° NE visible
02 Oct 4.8 20:27:07 10° SW 20:32:02 40° NW 20:37:01 10° NNE visible
02 Oct 6.6 22:14:02 10° NW 22:15:42 11° NNW 22:17:22 10° NNW visible
03 Oct 5.6 03:25:26 10° N 03:30:00 28° NE 03:34:35 10° ESE visible
03 Oct 3.6 05:07:14 10° NNW 05:12:29 61° WSW 05:17:44 10° S visible
03 Oct 4.5 18:09:06 10° SSE 18:13:15 24° E 18:17:27 10° NE visible
03 Oct 4.0 19:49:46 10° SW 19:54:56 60° WNW 20:00:11 10° NNE visible
03 Oct 6.3 21:35:11 10° WNW 21:38:12 15° NW 21:41:15 10° N visible
04 Oct 6.0 02:48:46 10° N 02:52:43 20° NE 02:56:38 10° E visible
04 Oct 3.6 04:30:13 10° NNW 04:35:35 88° ENE 04:40:57 10° SSE visible
04 Oct 3.5 19:12:42 10° SSW 19:17:56 90° SW 19:23:16 10° NNE visible
04 Oct 5.9 20:56:54 10° W 21:00:48 21° NW 21:04:44 10° N visible
